Date,TemperatureHighF,TemperatureAvgF,TemperatureLowF,DewpointHighF,DewpointAvgF,DewpointLowF,HumidityHigh,HumidityAvg,HumidityLow,PressureMaxIn,PressureMinIn,WindSpeedMaxMPH,WindSpeedAvgMPH,GustSpeedMaxMPH,PrecipitationSumIn
2013-1-1,44,40,32,39,36,26,93,86,75,30.06,29.88,16,5,51,0.00
2013-1-2,36,31,26,28,25,22,89,80,72,30.23,30.01,17,4,51,0.00
2013-1-3,37,31,27,30,27,25,93,85,73,30.23,30.12,10,2,51,0.00
2013-1-4,40,35,30,33,31,28,95,86,77,30.15,30.02,24,6,51,0.00
2013-1-5,45,37,32,36,32,28,92,83,70,30.33,30.07,14,4,51,0.00
2013-1-6,49,41,34,44,38,32,100,90,77,30.28,30.02,12,2,51,0.06
2013-1-7,50,41,32,41,36,31,96,86,66,30.44,30.09,14,3,51,0.00
2013-1-8,51,40,30,44,38,29,100,91,76,30.48,30.38,16,2,51,0.00
2013-1-9,55,44,33,50,42,33,100,93,81,30.43,30.17,18,2,51,0.00
2013-1-10,52,45,38,43,38,35,94,77,61,30.57,30.28,18,3,51,0.00
2013-1-11,47,44,38,47,44,36,100,96,86,30.56,30.10,9,2,51,0.83
2013-1-12,48,46,44,48,46,44,100,100,100,30.20,30.08,8,0,51,0.00
2013-1-13,51,46,42,51,46,42,100,100,100,30.19,30.04,9,1,51,0.01
2013-1-14,59,52,43,59,50,41,100,94,75,30.31,29.96,12,2,51,0.04
2013-1-15,43,40,38,42,38,36,100,94,88,30.36,30.23,11,1,51,0.28
2013-1-16,42,38,36,42,38,36,100,100,100,30.24,29.81,12,2,51,0.97
2013-1-17,46,41,39,41,39,37,100,93,82,30.13,29.96,11,3,51,0.00
2013-1-18,40,33,28,38,26,21,93,77,62,30.54,30.04,19,4,51,0.00
2013-1-19,53,41,28,40,34,23,91,76,61,30.46,29.98,21,5,51,0.00
2013-1-20,57,45,34,43,36,25,88,71,49,30.08,29.74,25,7,51,0.00
2013-1-21,34,32,28,32,26,22,100,80,68,30.14,29.88,11,1,51,0.00
2013-1-22,29,22,17,27,15,9,96,75,62,30.27,29.89,21,8,51,0.00
2013-1-23,24,18,13,14,11,8,90,75,63,30.31,30.21,16,4,51,0.00
2013-1-24,28,21,14,17,14,12,92,75,55,30.46,30.17,22,4,51,0.00
2013-1-25,26,20,14,22,15,9,100,83,68,30.47,30.12,13,3,51,0.00
2013-1-26,31,23,15,24,19,15,100,86,69,30.43,30.10,15,4,51,0.00
2013-1-27,36,27,18,27,22,16,91,80,64,30.57,30.43,14,3,51,0.00
2013-1-28,37,32,25,37,31,22,100,96,88,30.54,30.06,9,1,51,0.13
2013-1-29,54,44,36,52,44,36,100,99,87,30.18,30.05,11,1,51,0.00
2013-1-30,62,53,44,62,53,44,100,100,97,30.11,29.43,25,3,51,0.04
2013-1-31,61,46,31,61,40,24,100,80,62,29.86,29.14,34,10,51,0.17
2013-2-1,34,30,25,26,23,18,82,75,61,30.28,29.86,22,6,51,0.00
2013-2-2,33,27,20,26,20,16,100,76,60,30.36,30.10,14,5,51,0.00
2013-2-3,34,29,25,32,28,25,100,97,89,30.10,29.84,10,1,51,0.02
2013-2-4,34,29,24,29,24,20,100,81,68,30.05,29.88,19,5,51,0.00
2013-2-5,35,32,28,35,32,28,100,100,99,30.02,29.95,9,1,51,0.00
2013-3-28,54,50,44,43,42,40,86,73,64,30.14,30.02,11,3,12,0.00
2013-3-29,58,49,39,46,41,37,92,73,56,30.18,30.08,12,3,16,0.00
2013-3-30,60,48,39,46,41,37,95,78,48,30.21,30.11,9,2,12,0.00
2013-3-31,54,47,39,49,45,38,100,91,72,30.17,29.71,10,3,16,0.39
2013-4-1,65,53,42,56,47,29,100,83,58,29.95,29.66,19,5,24,9.36
2013-4-2,49,42,33,32,29,26,76,60,50,30.12,29.95,16,5,21,0.00
2013-4-3,51,42,34,33,29,25,71,59,49,30.32,30.11,18,5,21,0.00
2013-4-4,48,42,32,41,33,26,86,73,59,30.42,30.13,11,2,14,0.00
2013-4-5,65,51,40,48,41,35,100,73,42,30.13,29.74,12,3,15,0.08
2013-4-6,51,44,37,38,34,28,93,69,48,30.35,30.02,18,3,19,0.00
2013-4-7,55,48,38,52,45,36,96,91,81,30.34,30.05,15,4,22,0.00
2013-4-8,66,59,50,57,54,50,99,84,68,30.13,30.00,8,2,12,0.00
2013-4-9,83,69,53,65,58,52,100,72,39,30.03,29.95,15,4,21,0.00
2013-4-10,71,62,53,62,57,52,100,85,72,30.00,29.81,21,4,21,0.40
2013-4-11,60,54,46,60,54,46,100,100,98,30.06,29.78,13,4,21,0.03
2013-4-12,46,44,42,46,44,42,100,100,100,30.05,29.73,20,6,23,1.16
2013-4-13,58,48,41,54,47,41,100,97,83,30.02,29.76,9,2,11,0.18
2013-4-14,62,53,44,54,46,44,100,79,52,30.24,30.01,17,3,18,0.00
2013-4-15,51,48,45,48,45,42,100,91,81,30.40,30.24,10,3,13,0.00
2013-4-16,61,55,47,60,54,47,100,98,94,30.40,30.16,14,3,18,0.00
2013-4-17,65,60,53,59,55,48,100,85,70,30.32,30.14,9,2,18,0.01
2013-4-18,55,52,48,55,51,47,100,97,84,30.38,30.13,11,2,18,0.24
2013-4-19,70,62,54,68,61,54,100,99,90,30.13,29.72,13,3,20,0.01
2013-4-20,66,54,50,66,47,38,100,77,56,30.32,29.72,15,6,20,0.36
2013-4-21,51,46,39,41,38,32,94,72,61,30.64,30.32,15,3,20,9.12
2013-4-22,48,45,41,45,43,39,99,91,82,30.67,30.50,16,6,22,9.12
2013-4-23,51,46,42,50,45,42,100,97,95,30.50,30.14,15,5,22,9.12
2013-4-24,62,52,41,58,51,41,100,95,78,30.15,29.88,10,2,22,9.12
2013-4-25,65,56,49,57,47,43,100,74,47,30.31,29.92,22,4,22,0.02
2013-4-26,67,56,45,50,46,42,96,71,49,30.43,30.31,8,2,22,9.60
2013-4-27,65,56,47,48,45,43,87,67,49,30.46,30.34,9,2,22,9.60
2013-4-28,64,56,45,56,47,42,96,75,53,30.36,30.25,10,2,22,9.60
2013-4-29,56,53,51,54,53,51,100,99,93,30.28,30.21,6,2,22,0.25
2013-4-30,58,54,50,57,52,48,100,93,80,30.37,30.22,12,3,22,15.60
2013-5-1,59,51,44,54,50,44,100,95,80,30.51,30.36,11,2,22,15.60
2013-5-2,62,55,44,56,50,44,100,86,71,30.51,30.37,9,1,22,15.60
2013-5-3,56,52,50,52,50,48,100,92,79,30.50,30.39,15,4,22,15.60
2013-5-4,58,52,45,56,50,45,100,94,82,30.40,30.30,11,3,22,15.60
2013-5-5,54,50,47,51,48,45,100,95,87,30.33,30.27,9,4,22,15.60
2013-5-6,57,51,48,55,51,48,100,99,94,30.31,30.20,10,3,22,15.60
2013-5-7,58,54,49,58,54,49,100,100,99,30.21,30.13,9,2,22,0.01
2013-5-8,63,59,56,63,58,56,100,99,95,30.13,30.01,12,3,22,1.50
2013-5-9,70,60,54,65,59,54,100,96,82,30.04,29.94,11,1,22,0.40
2013-5-10,79,65,57,68,62,57,100,91,65,30.04,29.92,11,2,22,61.44
2013-5-11,72,64,61,70,64,61,100,99,92,29.95,29.75,13,2,22,0.79
2013-5-12,72,62,53,64,54,42,100,76,48,30.00,29.71,26,5,26,0.06
2013-5-13,62,54,45,48,43,39,88,67,54,30.14,29.98,17,4,26,81.84
2013-5-14,64,54,42,52,45,40,96,74,45,30.18,30.08,14,2,26,81.84
2013-5-15,72,60,50,66,57,43,97,90,76,30.12,29.74,14,2,26,81.84
2013-5-16,75,68,61,67,62,56,100,83,57,29.89,29.73,10,1,26,0.01
2013-5-17,76,68,58,66,56,51,96,66,48,30.24,29.86,13,2,26,82.08
2013-5-18,64,59,56,62,58,55,100,97,88,30.35,30.22,7,1,26,0.02
2013-5-19,60,58,56,60,58,56,100,100,99,30.34,30.19,12,1,26,0.53
2013-5-20,77,67,59,75,66,59,100,99,94,30.21,30.01,8,1,26,0.02
2013-5-21,86,77,66,78,73,66,100,90,75,30.02,29.89,11,2,26,95.76
2013-5-22,80,72,65,77,71,65,100,97,87,29.97,29.87,6,1,26,95.76
2013-5-23,79,72,64,76,71,64,100,97,86,29.95,29.81,15,3,26,0.10
2013-5-24,70,59,47,69,59,47,100,99,96,30.00,29.74,17,3,26,0.18
2013-5-25,60,52,46,54,49,45,100,91,72,30.07,29.95,26,6,26,0.06
2013-5-26,70,60,49,53,49,46,91,68,48,30.24,30.02,18,6,26,103.92
2013-5-27,76,64,47,56,52,46,96,66,46,30.29,30.17,14,2,26,103.92
2013-5-28,72,61,56,63,59,54,100,92,65,30.27,30.16,9,0,26,0.38
2013-5-29,88,71,58,76,68,58,100,89,64,30.17,30.05,12,2,26,113.04
2013-5-30,93,82,72,77,74,71,97,79,52,30.18,30.10,11,3,26,113.04
2013-5-31,92,82,73,78,75,72,98,80,54,30.17,30.04,10,2,26,108.33
2013-6-1,91,80,71,77,74,70,98,84,60,30.08,29.95,13,3,26,113.04
2013-6-2,88,79,72,77,74,72,99,87,68,29.98,29.84,17,4,26,0.04
2013-6-3,77,72,67,76,71,67,100,99,96,29.91,29.83,14,1,26,0.52
2013-6-4,76,70,60,68,58,54,100,67,54,30.14,29.89,17,3,26,0.00
2013-6-5,72,64,56,62,59,53,100,85,67,30.25,30.13,11,2,26,0.00
2013-6-6,70,63,60,67,63,60,100,99,92,30.19,30.04,15,2,26,0.04
2013-6-7,67,63,61,67,63,61,100,100,100,30.06,29.61,13,2,26,4.68
2013-6-8,78,69,58,74,68,58,100,95,84,30.09,29.57,15,3,26,0.21
2013-6-9,80,71,63,70,67,63,100,88,66,30.22,30.08,9,1,26,0.00
2013-6-10,69,66,63,68,66,63,100,100,97,30.20,29.86,12,1,26,2.06
2013-6-11,83,75,67,76,72,66,100,90,74,29.86,29.68,18,4,26,0.03
2013-6-12,84,74,67,69,66,64,95,77,57,29.89,29.76,17,4,26,0.00
2013-6-13,69,66,60,68,65,60,100,98,90,29.89,29.47,15,2,26,1.16
2013-6-14,73,63,56,66,61,56,100,94,74,29.94,29.49,21,3,26,0.10
2013-6-15,84,72,60,70,64,60,100,78,54,30.05,29.92,14,2,26,0.00
2013-6-16,85,74,64,76,69,63,97,85,67,30.04,29.83,19,3,26,0.00
2013-6-17,88,76,68,76,72,68,100,90,67,29.96,29.88,40,3,40,0.49
2013-6-18,79,70,66,76,70,66,100,98,84,29.93,29.81,11,1,40,0.64
2013-6-19,78,70,63,67,64,60,100,82,58,30.19,29.87,17,3,40,0.00
2013-6-20,80,70,59,69,63,59,100,82,64,30.29,30.17,14,2,40,0.00
2013-6-21,80,70,61,69,64,60,98,82,60,30.34,30.28,13,1,40,0.00
2013-6-22,83,71,61,72,66,61,100,85,59,30.30,30.18,11,2,40,0.00
2013-6-23,86,75,66,79,72,64,100,91,73,30.24,30.11,9,2,40,0.08
2013-6-24,93,81,73,82,76,73,100,87,62,30.13,30.00,14,3,40,0.03
2013-6-25,92,82,71,81,76,71,100,83,65,30.04,29.87,14,4,40,0.00
2013-6-26,91,81,73,80,75,71,100,83,58,29.91,29.82,16,4,40,1.21
2013-6-27,88,77,72,81,76,72,100,97,82,29.89,29.63,12,2,40,0.08
2013-6-28,88,80,74,80,76,73,100,91,71,29.64,29.53,14,3,40,0.02
2013-6-29,84,76,70,78,74,70,100,96,80,29.75,29.54,11,1,40,0.02
2013-6-30,86,76,71,81,75,71,100,98,87,29.95,29.74,10,1,40,0.04
2013-7-1,84,74,71,81,74,71,100,99,90,30.09,29.93,10,1,40,0.80
2013-7-2,81,76,72,80,75,71,100,99,96,30.24,30.08,16,1,40,0.47
2013-7-3,84,77,71,81,77,71,100,98,90,30.29,30.20,8,1,40,0.07
2013-7-4,91,82,75,83,79,75,100,91,71,30.30,30.20,14,3,40,0.00
2013-7-5,92,84,74,83,79,74,100,87,67,30.26,30.14,13,3,40,0.00
2013-7-6,95,87,77,84,80,77,100,82,65,30.19,30.07,11,4,40,0.00
2013-7-7,95,87,77,84,80,77,99,81,65,30.11,29.97,13,4,40,0.00
2013-7-8,90,81,73,80,76,72,98,87,68,30.10,30.01,12,4,40,0.00
2013-7-9,90,81,72,82,77,72,100,88,72,30.12,30.03,10,2,40,0.02
2013-7-10,89,82,75,83,79,74,100,91,75,30.07,29.86,13,3,40,0.00
2013-7-11,85,80,76,80,78,76,100,94,75,29.95,29.86,11,2,40,0.18
2013-7-12,79,73,69,76,72,69,100,96,86,30.11,29.94,18,4,40,0.30
2013-7-13,82,76,70,81,76,70,100,100,96,30.31,30.10,14,1,40,0.00
2013-7-14,92,82,74,82,79,74,100,92,72,30.37,30.28,9,2,40,0.00
2013-7-15,97,86,76,86,81,76,100,85,60,30.29,30.15,11,3,40,0.03
2013-7-16,95,87,77,81,77,74,98,75,52,30.23,30.15,11,1,40,0.00
2013-7-17,98,86,76,81,78,75,96,77,55,30.22,30.11,9,1,40,0.00
2013-7-18,99,87,79,84,79,75,95,78,58,30.12,30.00,14,2,40,0.00
2013-7-19,94,86,78,82,79,76,99,81,62,30.02,29.85,16,5,40,0.00
2013-7-20,91,83,78,79,77,73,94,81,62,29.87,29.77,17,4,40,0.00
2013-7-21,81,76,73,78,73,69,99,91,71,29.99,29.87,13,2,40,0.00
2013-7-22,79,75,73,78,75,73,100,99,96,29.99,29.83,9,2,40,0.29
2013-7-23,90,81,73,81,78,73,100,92,71,29.85,29.61,11,2,40,0.25
2013-7-24,87,80,74,78,74,67,98,83,71,29.95,29.66,11,3,40,0.00
2013-7-25,76,68,65,67,65,63,99,91,77,30.07,29.93,15,4,40,0.00
2013-7-26,83,73,65,74,70,65,100,90,67,30.09,30.02,14,2,40,0.00
2013-7-27,84,74,67,76,72,67,100,92,71,30.10,30.00,11,2,40,0.00
2013-7-28,78,74,68,77,73,68,100,98,94,30.03,29.96,13,1,40,0.18
2013-7-29,86,76,68,77,71,65,100,85,60,30.15,29.98,10,2,40,0.08
2013-7-30,85,76,64,69,66,62,95,73,55,30.21,30.13,11,2,40,0.00
2013-7-31,85,75,64,72,69,64,98,81,60,30.20,30.08,12,1,40,0.00
2013-8-1,77,72,70,74,71,69,100,96,89,30.09,29.87,8,0,40,0.90
2013-8-2,86,78,68,75,72,68,100,83,63,29.97,29.84,12,2,40,0.00
2013-8-3,78,73,70,74,72,70,100,95,87,29.97,29.90,12,2,40,0.05
2013-8-4,84,75,64,70,67,61,100,77,58,30.01,29.89,16,2,40,0.00
2013-8-5,81,72,61,67,62,59,93,72,50,30.10,30.00,10,2,40,0.00
2013-8-6,82,73,62,70,66,61,96,80,58,30.16,30.07,11,1,40,0.00
2013-8-7,78,74,70,74,72,69,99,93,84,30.18,30.10,13,2,40,0.00
2013-8-8,82,75,72,80,75,71,100,99,94,30.12,30.05,10,2,40,1.47
2013-8-9,87,79,74,83,78,74,100,96,86,30.08,29.86,17,2,40,0.01
2013-8-10,84,80,73,78,74,71,100,83,67,30.08,29.89,10,2,40,0.00
2013-8-11,80,74,65,74,69,64,100,85,67,30.17,30.07,8,1,40,0.00
2013-8-12,80,74,70,77,74,70,100,99,92,30.08,29.97,5,0,40,0.45
2013-8-13,75,71,67,75,71,67,100,100,96,29.98,29.75,10,0,40,2.35
2013-8-14,75,68,61,69,61,58,100,79,61,30.06,29.78,16,3,40,0.00
2013-8-15,76,65,56,63,59,55,98,83,56,30.16,30.05,10,1,40,0.00
2013-8-16,78,68,58,66,62,57,98,81,55,30.22,30.14,10,1,40,0.00
2013-8-17,77,69,58,67,63,58,100,84,66,30.28,30.21,8,1,40,0.00
2013-8-18,73,68,64,70,65,63,99,92,78,30.28,30.14,11,1,40,0.01
2013-8-19,78,70,62,69,66,61,99,88,67,30.16,30.05,9,2,40,0.00
2013-8-20,83,74,64,74,70,64,100,90,72,30.15,30.07,9,1,40,0.00
2013-8-21,87,76,68,76,72,67,100,89,56,30.19,30.08,10,2,40,0.00
2013-8-22,80,73,70,76,72,70,100,98,85,30.09,29.89,13,2,40,0.16
2013-8-23,82,74,67,73,67,62,100,80,50,30.10,29.89,13,1,40,0.00
2013-8-24,76,69,61,67,64,61,99,85,66,30.36,30.08,16,2,40,0.00
2013-8-25,80,69,58,66,61,58,100,78,53,30.41,30.27,9,1,40,0.00
2013-8-26,82,72,64,72,67,59,96,84,67,30.28,29.94,14,5,40,0.00
2013-8-27,84,76,68,73,71,68,100,86,67,29.96,29.85,13,3,40,0.07
2013-8-28,82,74,68,75,72,68,100,94,79,29.91,29.86,6,0,40,0.00
2013-8-29,74,70,67,71,69,67,100,98,90,30.05,29.89,14,2,40,0.00
2013-8-30,81,73,68,74,71,67,99,92,77,30.05,29.89,8,3,40,0.00
2013-8-31,84,76,68,77,73,68,100,93,78,29.91,29.81,10,3,40,0.00
2013-9-1,81,75,71,77,74,71,100,97,86,29.88,29.81,10,1,40,0.00
2013-9-2,77,73,69,76,73,69,100,100,97,29.84,29.74,7,0,40,0.08
2013-9-3,83,74,68,78,71,66,100,90,68,29.90,29.74,11,2,40,0.00
2013-9-4,82,73,63,69,66,63,99,79,60,30.03,29.90,9,3,40,0.00
2013-9-5,80,72,62,70,64,56,97,77,54,30.17,29.98,9,3,40,0.00
2013-9-6,71,65,58,59,57,54,95,76,64,30.29,30.17,9,2,40,0.00
2013-9-7,79,67,53,65,60,52,99,80,50,30.18,29.96,8,1,40,0.00
2013-9-8,85,74,65,74,66,57,100,79,58,30.11,29.87,16,3,40,0.00
2013-9-9,72,68,63,67,62,56,96,81,70,30.28,30.08,13,2,40,0.00
2013-9-10,86,77,68,80,75,66,98,92,81,30.22,30.10,13,3,40,0.00
2013-9-11,92,82,75,83,79,75,100,89,73,30.16,30.02,8,2,40,0.00
2013-9-12,88,78,72,80,76,72,100,95,78,30.05,29.74,9,2,40,0.39
2013-9-13,80,72,63,74,68,59,100,88,68,29.90,29.69,9,3,40,0.15
2013-9-14,71,62,54,60,57,53,98,83,66,30.17,29.89,12,3,40,0.00
2013-9-15,75,63,49,65,58,49,100,85,58,30.26,30.13,10,1,40,0.00
2013-9-16,70,64,60,66,63,60,100,95,82,30.25,30.08,12,1,40,0.04
2013-9-17,63,58,51,60,51,47,98,80,64,30.46,30.25,13,3,40,0.00
2013-9-18,72,60,47,60,55,47,100,87,64,30.39,30.23,10,1,40,0.00
2013-9-19,77,64,53,65,60,53,100,88,61,30.24,30.13,6,1,40,0.00
2013-9-20,78,67,57,69,64,57,100,91,67,30.14,30.02,10,1,40,0.00
2013-9-21,76,68,56,74,67,56,100,98,82,30.04,29.71,16,2,40,0.10
2013-9-22,74,68,61,72,61,54,100,82,63,29.94,29.68,10,3,40,0.45
2013-9-23,69,60,50,57,53,49,98,78,62,30.08,29.94,13,2,40,0.00
2013-9-24,72,61,48,61,55,48,100,83,62,30.09,29.92,8,2,11,0.00
2013-9-25,73,62,51,62,58,51,100,88,66,30.00,29.93,7,0,11,0.00
2013-9-26,72,62,53,68,61,53,100,96,86,30.13,29.97,15,1,15,0.00
2013-9-27,70,63,54,64,61,54,100,92,77,30.30,30.13,10,1,15,0.00
2013-9-28,72,66,58,65,62,58,100,89,72,30.35,30.27,12,2,15,0.00
2013-9-29,70,61,54,65,59,54,100,93,81,30.27,30.11,10,2,15,0.00
2013-9-30,73,62,52,67,60,52,100,92,70,30.12,30.02,7,1,15,0.00
2013-10-1,82,69,57,69,64,57,100,85,61,30.05,29.95,8,2,15,0.00
2013-10-2,84,73,61,71,68,61,99,84,65,30.06,29.96,13,2,15,0.00
2013-10-3,77,70,62,70,65,62,100,85,64,30.16,30.04,8,0,15,0.00
2013-10-4,86,75,61,75,71,61,100,88,67,30.11,30.02,9,1,15,0.00
2013-10-5,74,68,66,71,68,66,100,99,96,30.13,30.04,8,1,15,0.02
2013-10-6,71,68,66,70,68,65,100,100,100,30.13,30.06,10,1,15,0.01
2013-10-7,78,70,62,76,70,61,100,99,96,30.07,29.84,26,3,26,0.15
2013-10-8,68,62,54,62,56,54,99,82,64,30.33,30.01,14,2,26,0.00
2013-10-9,62,61,59,59,58,51,96,89,71,30.40,30.29,20,6,26,0.00
2013-10-10,65,61,57,65,60,57,100,99,95,30.31,30.08,21,6,26,0.17
2013-10-11,66,63,62,66,63,62,100,100,99,30.10,30.02,15,5,26,0.47
2013-10-12,69,64,61,64,61,56,99,91,78,30.30,30.08,26,6,26,0.00
2013-10-13,64,60,58,61,59,57,99,95,87,30.41,30.29,23,6,26,0.00
2013-10-14,63,58,51,60,57,51,100,95,85,30.40,30.29,13,2,26,0.00
2013-10-15,67,58,49,64,57,49,100,95,81,30.30,30.14,10,1,26,0.00
2013-10-16,66,62,60,65,62,60,100,100,96,30.16,29.97,9,1,26,0.00
2013-10-17,72,65,61,70,64,61,100,99,93,29.99,29.74,10,1,26,0.00
2013-10-18,70,63,55,67,57,51,100,82,65,30.03,29.74,16,5,26,0.01
2013-10-19,65,57,48,60,55,47,100,93,80,30.04,29.80,8,1,26,0.01
2013-10-20,64,57,49,60,51,47,100,82,58,30.12,29.80,16,3,26,0.00
2013-10-21,69,57,46,56,51,45,98,82,55,30.20,30.03,8,1,26,0.00
2013-10-22,71,58,48,60,54,48,100,88,65,30.03,29.81,12,2,26,0.00
2013-10-23,55,51,44,53,48,44,100,92,78,29.87,29.65,16,2,26,0.02
2013-10-24,56,47,40,47,42,38,100,84,64,30.07,29.81,11,4,26,0.00
2013-10-25,56,47,39,46,41,38,96,82,63,30.28,30.06,14,3,26,0.00
2013-10-26,58,48,37,46,42,37,98,81,59,30.27,29.95,15,3,26,0.00
2013-10-27,60,52,45,48,44,41,88,75,60,30.17,29.92,15,3,26,0.00
2013-10-28,64,51,38,50,45,38,98,81,59,30.33,30.16,12,1,26,0.00
2013-10-29,56,51,44,51,48,44,99,89,80,30.44,30.32,12,2,26,0.00
2013-10-30,63,52,43,61,52,43,100,99,93,30.40,30.23,9,0,26,0.00
2013-10-31,69,62,54,68,61,53,100,99,94,30.28,29.87,15,2,26,0.02
2013-11-1,71,66,60,70,65,60,100,97,83,29.91,29.62,27,5,27,0.31
2013-11-2,68,60,53,64,58,51,100,95,81,29.83,29.67,8,1,27,0.01
2013-11-3,55,48,38,51,44,34,100,85,70,30.47,29.83,12,2,27,0.00
2013-11-4,48,43,37,44,36,31,93,79,70,30.67,30.45,16,2,27,0.00
2013-11-5,56,52,48,51,48,44,100,89,82,30.67,30.51,8,2,27,0.00
2013-11-6,61,54,41,60,53,41,100,96,83,30.53,30.09,10,2,27,0.00
2013-11-7,65,57,42,65,57,41,100,97,83,30.11,29.79,17,4,27,0.07
2013-11-8,54,45,40,44,40,36,96,83,66,30.26,29.97,19,4,27,0.00
2013-11-9,52,45,36,44,39,34,96,81,64,30.33,30.03,12,2,27,0.00
2013-11-10,64,52,45,50,44,40,93,76,60,30.10,29.86,26,6,27,0.00
2013-11-11,57,50,41,45,41,36,82,72,60,30.25,30.00,14,4,27,0.00
2013-11-12,52,41,32,46,36,27,100,85,76,30.32,29.96,20,5,27,0.01
2013-11-13,45,35,29,30,28,26,90,76,53,30.40,30.31,17,3,27,0.00
2013-11-14,55,44,33,35,32,29,88,65,44,30.33,30.20,13,5,27,0.00
2013-11-15,60,47,39,50,41,33,94,81,53,30.29,30.19,8,1,27,0.00
2013-11-16,55,48,42,54,48,40,100,97,87,30.36,30.26,7,0,27,0.06
2013-11-17,62,56,47,62,56,47,100,100,100,30.29,29.83,10,1,27,0.00
2013-11-18,67,61,52,63,52,40,100,75,52,29.84,29.66,15,5,27,0.26
2013-11-19,52,46,38,40,37,33,83,71,63,30.37,29.83,17,6,27,0.00
2013-11-20,46,40,35,35,32,29,88,73,58,30.63,30.37,16,2,27,0.00
2013-11-21,53,46,33,50,44,30,97,91,79,30.63,30.43,11,1,27,0.00
2013-11-22,60,54,49,59,54,48,100,98,94,30.43,29.95,13,3,27,0.01
2013-11-23,54,45,34,54,38,25,100,78,62,30.08,29.95,21,6,27,0.00
2013-11-24,34,28,24,26,18,15,72,64,57,30.44,30.05,29,8,29,0.00
2013-11-25,38,30,22,28,23,16,87,75,65,30.55,30.39,11,3,29,0.00
2013-11-26,55,41,33,55,38,28,100,89,72,30.39,29.77,18,3,29,0.56
2013-11-27,62,49,35,62,48,31,100,99,85,29.80,29.37,26,6,29,1.63
2013-11-28,39,34,30,32,28,26,92,78,63,30.51,29.80,17,5,29,0.00
2013-11-29,43,35,30,33,30,27,95,82,68,30.75,30.50,12,1,29,0.00
2013-11-30,45,36,27,45,34,25,99,92,85,30.76,30.38,11,2,29,0.00
2013-12-1,53,43,35,46,42,35,100,94,75,30.38,30.05,8,1,29,0.00
2013-12-2,52,43,36,47,41,36,100,93,73,30.05,29.91,7,0,29,0.00
2013-12-3,55,44,37,49,43,37,100,97,80,30.03,29.90,6,0,29,0.01
2013-12-4,52,45,37,52,45,37,100,100,96,30.15,30.03,5,0,29,0.00
2013-12-5,60,55,48,60,55,48,100,100,100,30.15,29.97,10,1,29,0.00
2013-12-6,62,51,38,62,51,38,100,100,100,30.17,29.91,17,3,29,0.39
2013-12-7,44,38,32,42,36,30,100,94,82,30.54,30.10,10,3,29,0.15
2013-12-8,39,33,29,39,31,27,100,94,84,30.61,30.36,15,2,29,0.15
2013-12-9,44,39,35,44,39,35,100,100,100,30.36,30.00,19,3,29,0.73
2013-12-10,36,34,28,36,34,28,100,100,96,30.20,29.89,14,3,29,0.09
2013-12-11,35,31,26,30,27,24,98,87,75,30.40,30.20,17,3,29,0.00
2013-12-12,31,27,23,26,21,19,94,80,65,30.41,30.24,18,3,29,0.00
2013-12-13,38,30,21,29,24,18,91,81,70,30.38,30.19,18,3,29,0.00
2013-12-14,50,35,30,50,34,28,100,98,88,30.51,29.74,25,5,29,0.96
2013-12-15,54,40,33,54,39,30,100,97,85,29.92,29.52,23,6,29,0.58
2013-12-16,34,29,23,32,24,20,96,81,68,30.28,29.90,21,5,29,0.00
2013-12-17,42,33,26,42,32,22,100,97,85,30.27,29.96,11,2,29,0.16
2013-12-18,39,32,25,35,30,25,100,93,79,30.23,29.96,18,4,29,0.00
2013-12-19,52,38,28,43,35,27,99,89,70,30.25,30.08,11,2,29,0.00
2013-12-20,57,47,34,56,44,34,100,89,69,30.15,30.02,14,3,29,0.00
2013-12-21,68,59,54,62,57,53,100,95,81,30.04,29.92,12,4,29,0.00
2013-12-22,72,65,61,70,64,61,100,99,94,29.99,29.84,17,5,29,0.01
2013-12-23,65,56,44,64,56,43,100,100,97,30.17,29.91,16,2,29,0.53
2013-12-24,45,38,30,43,34,24,97,84,70,30.37,30.11,16,4,29,0.00
2013-12-25,32,28,22,29,22,18,90,79,69,30.55,30.37,17,2,29,0.00
2013-12-26,41,33,26,37,31,25,98,93,83,30.46,30.19,11,1,29,0.00
2013-12-27,47,35,28,37,31,27,97,85,64,30.42,30.30,13,2,29,0.00
2013-12-28,60,44,30,44,37,29,96,78,56,30.34,30.12,20,4,29,0.00
2013-12-29,54,45,41,54,43,38,100,93,76,30.12,29.42,17,3,29,1.36
2013-12-30,48,39,27,46,37,22,100,92,82,30.23,29.74,10,4,29,0.00
2013-12-31,38,30,25,34,26,21,90,83,78,30.33,30.11,20,3,29,0.00
2014-1-1,38,32,25,37,28,21,97,85,75,30.45,30.27,13,1,29,0.00
2014-1-2,38,32,24,38,32,24,100,100,97,30.27,29.66,23,7,29,0.00